Location: Most
(50.5133°N, 13.6207°E)
Time: 18:57:55
(UTC+01:00)

SEEDS - Pass Details

Date: 30 November 2021
Orbit: 584 x 600 km, 97.6° (Epoch: 22 January)

Event Time Altitude Azimuth Distance (km) Brightness Sun altitude
Rises 04:42:26 0° 14° (NNE) 2,826 ? -27.8°
Reaches altitude 10° 04:44:37 10° 16° (NNE) 1,919 ? -27.5°
Enters shadow 04:45:39 17° 17° (NNE) 1,499 ? -27.3°
